N2PUI Weather Reports


time (UTC)temp
C
wind
direction
speed
KPH
gust
KPH
rain 1hr
cm
rain 24hr
cm
rain mn
cm
humidity
%
barometer
mb
20260831194214 18 114 1.6 1.6 0.00 0.56 0.56 95 1019.8
20260831193707 18 93 0.0 0.0 0.00 0.56 0.56 95 1020.0
20260831193202 18 121 4.8 8.0 0.00 0.56 0.56 95 1020.0
20260831192657 18 133 3.2 3.2 0.00 0.56 0.56 95 1020.0
20260831192153 18 120 3.2 3.2 0.00 0.56 0.56 95 1019.8
20260831191648 18 122 3.2 3.2 0.18 0.56 0.56 95 1020.1
20260831191144 18 128 3.2 3.2 0.18 0.56 0.56 95 1020.1
20260831190639 18 124 1.6 1.6 0.00 0.53 0.53 95 1020.0
20260831190138 18 135 1.6 3.2 0.00 0.53 0.53 95 1020.2
20260831185634 18 112 6.4 8.0 0.00 0.53 0.53 95 1020.1
20260831185130 18 153 3.2 3.2 0.00 0.53 0.53 95 1020.2
20260831184629 18 104 8.0 11.3 0.00 0.53 0.53 95 1020.3
20260831184125 18 129 6.4 9.7 0.00 0.53 0.53 95 1020.3
20260831183624 18 106 4.8 4.8 0.00 0.53 0.53 95 1020.6
20260831183124 18 161 3.2 3.2 0.00 0.53 0.53 95 1020.5
20260831182623 18 127 4.8 8.0 0.00 0.53 0.53 95 1020.6
20260831182119 18 131 3.2 4.8 0.00 0.53 0.53 95 1020.7
20260831181614 18 119 3.2 3.2 0.00 0.53 0.53 95 1020.7
20260831181114 18 108 4.8 4.8 0.00 0.53 0.53 95 1020.7
20260831180609 18 128 3.2 3.2 0.00 0.53 0.53 95 1020.9
20260831180104 18 142 1.6 1.6 0.00 0.53 0.53 95 1020.9
20260831175559 18 134 0.0 1.6 0.00 0.53 0.53 95 1020.7
20260831175056 18 129 1.6 1.6 0.00 0.53 0.53 95 1020.8
20260831174551 18 173 6.4 8.0 0.00 0.53 0.53 95 1021.1
20260831174050 18 118 3.2 4.8 0.18 0.53 0.53 95 1021.0
20260831173549 18 147 4.8 4.8 0.30 0.53 0.53 95 1021.0
20260831173045 18 141 3.2 4.8 0.13 0.51 0.51 95 1021.3
20260831172540 18 120 4.8 8.0 0.30 0.48 0.48 95 1021.2
20260831172035 18 124 3.2 4.8 0.48 0.48 0.48 95 1021.4
20260831171531 18 130 3.2 3.2 0.30 0.43 0.43 95 1021.3
20260831171027 18 104 4.8 4.8 0.30 0.41 0.41 95 1021.3
20260831170523 18 117 3.2 4.8 0.30 0.38 0.38 95 1021.4
20260831170021 18 129 4.8 4.8 0.13 0.36 0.36 95 1021.3
20260831165521 18 121 6.4 8.0 0.18 0.33 0.33 95 1021.3
20260831165018 18 121 3.2 3.2 0.18 0.33 0.33 95 1021.6
20260831164513 18 117 3.2 4.8 0.13 0.30 0.30 95 1021.6
20260831164009 18 111 4.8 8.0 0.30 0.30 0.30 95 1021.6
20260831163508 18 123 4.8 8.0 0.30 0.28 0.28 95 1021.6
20260831163004 18 130 1.6 3.2 0.61 0.25 0.25 95 1021.8
20260831162458 18 127 4.8 8.0 0.66 0.23 0.23 95 1021.6
20260831161955 18 129 4.8 4.8 0.48 0.15 0.15 95 1021.5
20260831161453 18 127 3.2 3.2 0.30 0.13 0.13 95 1021.7
20260831160948 18 157 0.0 1.6 0.13 0.08 0.08 94 1021.9
20260831160447 18 163 0.0 0.0 0.43 0.08 0.08 93 1022.0
20260831155948 18 164 0.0 0.0 0.30 0.05 0.05 92 1022.0
20260831155443 18 152 0.0 0.0 0.00 0.00 0.00 91 1021.7
20260831154938 18 128 3.2 3.2 0.00 0.00 0.00 91 1022.0
20260831154435 18 134 3.2 3.2 0.00 0.00 0.00 90 1021.8
20260831153933 18 138 1.6 1.6 0.00 0.00 0.00 90 1021.6
20260831153429 18 133 1.6 3.2 0.00 0.00 0.00 90 1022.0
20260831152925 18 128 1.6 1.6 0.00 0.00 0.00 90 1021.9
20260831152420 18 106 1.6 3.2 0.00 0.00 0.00 90 1021.8
20260831151915 18 118 3.2 3.2 0.00 0.00 0.00 91 1021.7
20260831151414 18 118 3.2 4.8 0.00 0.00 0.00 91 1021.9
20260831150910 18 103 4.8 8.0 0.00 0.00 0.00 91 1021.5
20260831150405 18 155 4.8 4.8 0.00 0.00 0.00 91 1021.6
20260831145904 18 139 3.2 3.2 0.00 0.00 0.00 91 1021.5
20260831145401 18 126 3.2 4.8 0.00 0.00 0.00 92 1021.5
20260831144856 18 141 4.8 8.0 0.00 0.00 0.00 92 1021.6
20260831144352 18 124 1.6 3.2 0.00 0.00 0.00 92 1021.5
20260831143847 18 122 4.8 4.8 0.00 0.00 0.00 93 1021.6
20260831143342 18 177 4.8 8.0 0.00 0.00 0.00 94 1021.7
20260831142837 17 131 4.8 4.8 0.00 0.00 0.00 95 1021.7
20260831142332 17 132 3.2 4.8 0.00 0.00 0.00 95 1021.4
20260831141832 17 113 4.8 4.8 0.00 0.00 0.00 95 1021.4
20260831141327 17 104 4.8 8.0 0.00 0.00 0.00 95 1021.3
20260831140822 17 110 4.8 8.0 0.00 0.00 0.00 95 1021.5
20260831140316 17 171 4.8 4.8 0.00 0.00 0.00 95 1021.6
20260831135814 17 169 1.6 3.2 0.00 0.00 0.00 95 1021.6
20260831135310 17 125 4.8 4.8 0.00 0.00 0.00 95 1021.6
20260831134805 16 146 0.0 0.0 0.00 0.00 0.00 95 1021.6
20260831134302 17 164 0.0 0.0 0.00 0.00 0.00 95 1021.9
20260831133800 16 155 0.0 0.0 0.00 0.00 0.00 95 1021.6
20260831133255 16 134 0.0 0.0 0.00 0.00 0.00 95 1021.8
20260831132750 16 163 0.0 0.0 0.00 0.00 0.00 95 1021.9
20260831132245 16 167 0.0 0.0 0.00 0.00 0.00 95 1021.9
20260831131744 16 155 0.0 0.0 0.00 0.00 0.00 95 1022.0
20260831131241 16 167 0.0 1.6 0.00 0.00 0.00 95 1022.1
20260831130736 16 167 0.0 0.0 0.00 0.00 0.00 95 1021.9
20260831130231 16 167 0.0 0.0 0.00 0.00 0.00 95 1021.8
20260831125730 16 166 0.0 0.0 0.00 0.00 0.00 95 1021.8
20260831125226 16 167 0.0 0.0 0.00 0.00 0.00 95 1021.6
20260831124720 15 152 0.0 0.0 0.00 0.00 0.00 95 1021.6
20260831124217 15 167 0.0 0.0 0.00 0.00 0.00 95 1021.7
20260831123716 15 167 0.0 0.0 0.00 0.00 0.00 95 1021.9
20260831123216 15 162 0.0 0.0 0.00 0.00 0.00 95 1021.9
20260831122710 15 161 0.0 0.0 0.00 0.00 0.00 95 1021.9
20260831122206 15 162 0.0 0.0 0.00 0.00 0.00 95 1022.0
20260831121705 15 174 0.0 1.6 0.00 0.00 0.00 95 1022.0
20260831121202 15 165 0.0 0.0 0.00 0.00 0.00 95 1022.1
20260831120657 15 165 0.0 0.0 0.00 0.00 0.00 95 1022.2
20260831120151 15 159 0.0 0.0 0.00 0.00 0.00 95 1022.4
20260831115647 15 159 0.0 0.0 0.00 0.00 0.00 95 1022.3
20260831115143 15 147 0.0 0.0 0.00 0.00 0.00 95 1022.2
20260831114642 15 148 0.0 0.0 0.00 0.00 0.00 95 1022.1
20260831114136 15 166 0.0 0.0 0.00 0.00 0.00 95 1022.2
20260831113631 15 166 0.0 0.0 0.00 0.00 0.00 95 1021.9
20260831113126 15 167 0.0 0.0 0.00 0.00 0.00 95 1021.9
20260831112625 15 143 0.0 0.0 0.00 0.00 0.00 95 1021.8
20260831112120 15 163 0.0 0.0 0.00 0.00 0.00 95 1021.8
20260831111616 15 165 0.0 0.0 0.00 0.00 0.00 95 1021.8
20260831111112 15 184 0.0 0.0 0.00 0.00 0.00 95 1022.0
20260831110607 15 175 0.0 0.0 0.00 0.00 0.00 95 1021.6
20260831105601 15 159 0.0 0.0 0.00 0.00 0.00 95 1021.5
20260831105056 15 156 0.0 0.0 0.00 0.00 0.00 95 1021.7
20260831104552 15 149 0.0 0.0 0.00 0.00 0.00 95 1021.6
20260831104048 15 148 0.0 0.0 0.00 0.00 0.00 95 1021.4
20260831103543 15 158 0.0 0.0 0.00 0.00 0.00 95 1021.5
20260831103033 15 118 0.0 0.0 0.00 0.00 0.00 95 1021.3
20260831102527 15 153 0.0 0.0 0.00 0.00 0.00 95 1021.4
20260831102022 15 151 0.0 0.0 0.00 0.00 0.00 95 1021.2
20260831101517 15 140 0.0 0.0 0.00 0.00 0.00 95 1021.3
20260831101014 15 144 0.0 0.0 0.00 0.00 0.00 95 1021.5
20260831100509 15 144 0.0 0.0 0.00 0.00 0.00 95 1021.3
20260831100005 15 144 0.0 0.0 0.00 0.00 0.00 95 1021.4
20260831095503 15 144 0.0 0.0 0.00 0.00 0.00 95 1021.4
20260831094958 15 145 0.0 0.0 0.00 0.00 0.00 95 1021.3
20260831094454 15 134 0.0 0.0 0.00 0.00 0.00 95 1021.3
20260831093950 15 144 0.0 0.0 0.00 0.00 0.00 95 1021.4
20260831093445 15 161 0.0 0.0 0.00 0.00 0.00 95 1021.4
20260831092941 15 163 0.0 0.0 0.00 0.00 0.00 95 1021.3
20260831092437 15 162 0.0 0.0 0.00 0.00 0.00 95 1021.4
20260831091932 15 163 0.0 0.0 0.00 0.00 0.00 95 1021.4
20260831091427 15 156 0.0 0.0 0.00 0.00 0.00 95 1021.4
20260831090922 15 163 0.0 0.0 0.00 0.00 0.00 95 1021.4
20260831090418 15 165 0.0 0.0 0.00 0.00 0.00 95 1021.3
20260831085914 15 166 0.0 0.0 0.00 0.00 0.00 95 1021.6
20260831085409 15 166 0.0 0.0 0.00 0.00 0.00 95 1021.5
20260831084909 15 146 0.0 0.0 0.00 0.00 0.00 95 1021.3
20260831084405 15 140 0.0 0.0 0.00 0.00 0.00 95 1021.3
20260831083901 15 137 0.0 0.0 0.00 0.00 0.00 95 1021.3
20260831083356 15 128 0.0 0.0 0.00 0.00 0.00 95 1021.4
20260831082855 15 165 0.0 0.0 0.00 0.00 0.00 95 1021.4
20260831082349 15 165 0.0 0.0 0.00 0.00 0.00 95 1021.6
20260831081845 15 165 0.0 0.0 0.00 0.00 0.00 95 1021.4
20260831081340 15 165 0.0 0.0 0.00 0.00 0.00 95 1021.3
20260831080837 15 163 0.0 0.0 0.00 0.00 0.00 95 1021.3
20260831080336 15 141 0.0 0.0 0.00 0.00 0.00 95 1021.1
20260831075832 15 141 0.0 0.0 0.00 0.00 0.00 95 1021.2
20260831075327 15 140 0.0 0.0 0.00 0.00 0.00 95 1021.3
20260831074822 15 141 0.0 0.0 0.00 0.00 0.00 95 1021.4
20260831074321 15 147 0.0 0.0 0.00 0.00 0.00 95 1021.2
20260831073817 15 147 0.0 0.0 0.00 0.00 0.00 95 1021.3
20260831073316 15 173 0.0 0.0 0.00 0.00 0.00 95 1021.2
20260831072811 15 154 0.0 0.0 0.00 0.00 0.00 95 1021.2
20260831072307 15 154 0.0 0.0 0.00 0.00 0.00 95 1021.3
20260831071803 15 154 0.0 0.0 0.00 0.00 0.00 95 1021.1
20260831071257 15 154 0.0 0.0 0.00 0.00 0.00 95 1021.2
20260831070757 15 153 0.0 0.0 0.00 0.00 0.00 95 1021.2
20260831070256 15 154 0.0 0.0 0.00 0.00 0.00 95 1021.3
20260831065755 15 154 0.0 0.0 0.00 0.00 0.00 95 1021.2
20260831065253 15 154 0.0 0.0 0.00 0.00 0.00 95 1021.3
20260831064748 15 154 0.0 0.0 0.00 0.00 0.00 95 1021.1
20260831064243 15 155 0.0 0.0 0.00 0.00 0.00 95 1021.1
20260831063740 15 156 0.0 0.0 0.00 0.00 0.00 95 1021.0
20260831063239 15 157 0.0 0.0 0.00 0.00 0.00 95 1021.4
20260831062734 15 142 0.0 0.0 0.00 0.00 0.00 95 1021.1
20260831062229 15 142 0.0 0.0 0.00 0.00 0.00 95 1021.3
20260831061727 15 142 0.0 0.0 0.00 0.00 0.00 95 1021.4
20260831061222 15 154 0.0 0.0 0.00 0.00 0.00 95 1021.6
20260831060718 15 157 0.0 0.0 0.00 0.00 0.00 95 1021.4
20260831060213 15 139 0.0 0.0 0.00 0.00 0.00 95 1021.8
20260831055713 15 139 0.0 0.0 0.00 0.00 0.00 95 1021.8
20260831055207 15 139 0.0 0.0 0.00 0.00 0.00 95 1022.0
20260831054702 15 139 0.0 0.0 0.00 0.00 0.00 95 1021.7
20260831054201 15 140 0.0 0.0 0.00 0.00 0.00 95 1021.6
20260831053656 15 139 0.0 0.0 0.00 0.00 0.00 95 1021.8
20260831053154 15 131 0.0 0.0 0.00 0.00 0.00 95 1021.9
20260831052649 15 163 0.0 0.0 0.00 0.00 0.00 94 1021.9
20260831052148 15 163 0.0 0.0 0.00 0.00 0.00 94 1021.9
20260831051646 15 163 0.0 0.0 0.00 0.00 0.00 94 1021.8
20260831051145 15 167 0.0 0.0 0.00 0.00 0.00 94 1021.6
20260831050640 15 172 0.0 0.0 0.00 0.00 0.00 94 1021.9
20260831050139 15 151 0.0 0.0 0.00 0.00 0.00 94 1021.7
20260831045638 16 144 0.0 0.0 0.00 0.00 0.00 94 1021.8
20260831045133 16 134 0.0 0.0 0.00 0.00 0.00 93 1021.7
20260831044629 16 154 0.0 0.0 0.00 0.00 0.00 93 1021.6
20260831044124 16 134 0.0 0.0 0.00 0.00 0.00 93 1021.7
20260831043619 15 134 0.0 0.0 0.00 0.00 0.00 93 1021.7
20260831043109 16 134 0.0 0.0 0.00 0.00 0.00 93 1021.9
20260831042608 16 137 0.0 0.0 0.00 0.00 0.00 92 1021.8
20260831042103 16 135 0.0 0.0 0.00 0.00 0.00 92 1021.5
20260831041558 16 135 0.0 0.0 0.00 0.00 0.00 92 1021.8
20260831041057 16 135 0.0 0.0 0.00 0.00 0.00 92 1021.8
20260831040552 16 136 0.0 0.0 0.00 0.00 0.00 92 1021.7
20260831040051 16 134 0.0 0.0 0.00 0.00 0.00 92 1021.8
20260831035543 16 138 0.0 0.0 0.00 0.00 0.00 91 1021.6
20260831035039 16 138 0.0 0.0 0.00 0.00 0.00 91 1021.6
20260831034538 17 138 0.0 0.0 0.00 0.00 0.00 91 1021.8
20260831034034 16 139 0.0 0.0 0.00 0.00 0.00 91 1021.6
20260831033530 17 139 0.0 0.0 0.00 0.00 0.00 90 1021.8
20260831033025 17 139 0.0 0.0 0.00 0.00 0.00 90 1021.7
20260831032524 17 139 0.0 0.0 0.00 0.00 0.00 90 1021.7
20260831032020 17 139 0.0 0.0 0.00 0.00 0.00 90 1021.8
20260831031519 17 140 0.0 0.0 0.00 0.00 0.00 90 1021.6
20260831031019 17 140 0.0 0.0 0.00 0.00 0.00 90 1021.8
20260831030518 17 140 0.0 0.0 0.00 0.00 0.00 90 1021.7
20260831030017 17 140 0.0 0.0 0.00 0.00 0.00 90 1021.9
20260831025510 17 138 0.0 0.0 0.00 0.00 0.00 89 1021.7
20260831025005 17 160 0.0 0.0 0.00 0.00 0.00 89 1021.6
20260831024501 18 160 0.0 0.0 0.00 0.00 0.00 89 1021.7
20260831024000 18 162 0.0 0.0 0.00 0.00 0.00 89 1021.5
20260831023458 18 162 0.0 0.0 0.00 0.00 0.00 89 1021.9
20260831022953 18 151 0.0 0.0 0.00 0.00 0.00 89 1021.7
20260831022452 18 148 0.0 0.0 0.00 0.00 0.00 88 1021.7
20260831021948 18 117 0.0 0.0 0.00 0.00 0.00 88 1021.8
20260831021446 18 145 0.0 0.0 0.00 0.00 0.00 88 1022.0
20260831020942 18 145 0.0 0.0 0.00 0.00 0.00 88 1021.9
20260831020437 18 144 0.0 0.0 0.00 0.00 0.00 88 1021.7
20260831015932 18 146 0.0 0.0 0.00 0.00 0.00 88 1021.6
20260831015428 18 147 0.0 0.0 0.00 0.00 0.00 87 1021.6
20260831014922 18 147 0.0 0.0 0.00 0.00 0.00 87 1021.7
20260831014417 18 147 0.0 0.0 0.00 0.00 0.00 87 1021.5
20260831013913 18 147 0.0 0.0 0.00 0.00 0.00 86 1021.6
20260831013409 18 128 0.0 0.0 0.00 0.00 0.00 86 1021.6
20260831012903 18 181 0.0 0.0 0.00 0.00 0.00 86 1021.5
20260831012358 18 182 0.0 0.0 0.00 0.00 0.00 86 1021.5
20260831011858 18 29 3.2 3.2 0.00 0.00 0.00 86 1021.7
20260831011352 18 104 1.6 3.2 0.00 0.00 0.00 85 1021.6
20260831010848 18 138 0.0 0.0 0.00 0.00 0.00 85 1021.7
20260831010348 18 116 1.6 1.6 0.00 0.00 0.00 84 1021.7
20260831005844 18 175 0.0 0.0 0.00 0.00 0.00 84 1021.3
20260831005339 19 165 0.0 0.0 0.00 0.00 0.00 83 1021.2
20260831004834 19 139 0.0 0.0 0.00 0.00 0.00 83 1021.3
20260831004330 19 152 0.0 0.0 0.00 0.00 0.00 83 1021.0
20260831003825 19 177 0.0 1.6 0.00 0.00 0.00 83 1021.2
20260831003322 19 193 3.2 3.2 0.00 0.00 0.00 83 1021.0
20260831002820 19 182 0.0 1.6 0.00 0.00 0.00 83 1020.8
20260831002314 19 284 1.6 3.2 0.00 0.00 0.00 83 1020.4
20260831001811 19 196 1.6 1.6 0.00 0.00 0.00 82 1020.6
20260831001305 19 161 0.0 1.6 0.00 0.00 0.00 82 1020.4
20260831000803 19 141 0.0 1.6 0.00 0.00 0.00 82 1020.5
20260831000303 19 120 1.6 1.6 0.00 0.00 0.00 82 1020.4
20260830235801 19 136 0.0 0.0 0.00 0.00 0.00 81 1020.5
20260830235256 20 144 1.6 3.2 0.00 0.00 0.00 81 1020.2
20260830234751 20 179 1.6 3.2 0.00 0.00 0.00 80 1020.4
20260830234247 20 227 4.8 4.8 0.00 0.00 0.00 80 1020.3
20260830233743 20 231 3.2 3.2 0.00 0.00 0.00 80 1020.3
20260830233238 20 185 1.6 1.6 0.00 0.00 0.00 80 1020.4
20260830232734 20 191 3.2 3.2 0.00 0.00 0.00 80 1020.4
20260830232229 20 298 3.2 3.2 0.00 0.00 0.00 81 1020.3
20260830231726 20 178 1.6 1.6 0.00 0.00 0.00 81 1020.2
20260830231225 20 144 0.0 1.6 0.00 0.00 0.00 81 1020.3
20260830230720 20 174 0.0 0.0 0.00 0.00 0.00 81 1020.5
20260830230215 20 166 0.0 0.0 0.00 0.00 0.00 81 1020.4
20260830225709 20 156 0.0 0.0 0.00 0.00 0.00 80 1020.3
20260830225204 20 161 0.0 0.0 0.00 0.00 0.00 80 1020.5
20260830224703 20 176 0.0 1.6 0.00 0.00 0.00 80 1020.4
20260830224159 20 155 0.0 1.6 0.00 0.00 0.00 80 1020.3
20260830223655 20 128 1.6 1.6 0.00 0.00 0.00 79 1020.4
20260830223150 20 138 0.0 1.6 0.00 0.00 0.00 79 1020.3
20260830222644 20 162 1.6 1.6 0.00 0.00 0.00 79 1020.1
20260830222140 20 178 0.0 0.0 0.00 0.00 0.00 79 1020.3
20260830221630 20 146 0.0 0.0 0.00 0.00 0.00 79 1020.0
20260830221126 20 187 1.6 1.6 0.00 0.00 0.00 79 1020.2
20260830220621 20 155 0.0 0.0 0.00 0.00 0.00 79 1020.3
20260830220120 20 149 0.0 0.0 0.00 0.00 0.00 79 1020.2
20260830215619 20 147 0.0 0.0 0.00 0.00 0.00 78 1020.2
20260830215114 21 180 0.0 1.6 0.00 0.00 0.00 78 1020.0
20260830214609 21 156 1.6 1.6 0.00 0.00 0.00 76 1020.0
20260830214103 21 159 0.0 0.0 0.00 0.00 0.00 76 1019.8
20260830213557 21 173 0.0 0.0 0.00 0.00 0.00 75 1020.2
20260830213053 21 240 3.2 3.2 0.00 0.00 0.00 75 1020.2
20260830212549 21 176 0.0 1.6 0.00 0.00 0.00 74 1020.3
20260830212043 21 309 1.6 3.2 0.00 0.00 0.00 75 1020.1
20260830211538 21 276 3.2 4.8 0.00 0.00 0.00 75 1020.3
20260830211037 21 178 1.6 1.6 0.00 0.00 0.00 75 1020.2
20260830210532 21 179 0.0 0.0 0.00 0.00 0.00 75 1020.3
20260830210026 21 197 1.6 1.6 0.00 0.00 0.00 74 1020.5
20260830205524 21 210 1.6 1.6 0.00 0.00 0.00 73 1020.1
20260830205020 21 186 1.6 3.2 0.00 0.00 0.00 73 1020.0
20260830204518 21 187 0.0 0.0 0.00 0.00 0.00 74 1020.2
20260830204013 21 184 0.0 0.0 0.00 0.00 0.00 74 1020.2
20260830203509 21 184 0.0 0.0 0.00 0.00 0.00 74 1020.2
20260830203004 21 184 0.0 0.0 0.00 0.00 0.00 75 1020.2
20260830202458 21 210 0.0 0.0 0.00 0.00 0.00 74 1020.4
20260830201954 21 189 0.0 0.0 0.00 0.00 0.00 73 1020.2
20260830201453 21 181 0.0 0.0 0.00 0.00 0.00 73 1020.4
20260830200948 21 154 1.6 1.6 0.00 0.00 0.00 72 1020.5
20260830200443 21 161 0.0 0.0 0.00 0.00 0.00 72 1020.3
20260830195937 21 176 0.0 0.0 0.00 0.00 0.00 72 1020.4
20260830195433 21 196 1.6 1.6 0.00 0.00 0.00 71 1020.4
20260830194930 21 0 3.2 3.2 0.00 0.00 0.00 71 1020.1
20260830194425 21 203 3.2 3.2 0.00 0.00 0.00 70 1020.1